Find Starlink 37115

NORAD ID: 68297 Int'l Des: 2026-057 Owner: SPXS Country: US Constellation: starlink operational
LEOCIRCULARRETROGRADE

リアルタイム位置

3D地球を読み込み中...

Starlink 37115について

説明を読み込み中...

次回通過

Passes for default location (London). Set your location on the main map for personalized predictions.

高度履歴

Loading altitude history...

軌道要素

1 68297U 26057D 26125.59168856 .00214789 00000-0 14002-2 0 9996
2 68297 97.2861 250.8796 0002920 111.3463 248.8115 15.75267154 7241
Epoch: May 5, 2026 • Age: 14 hours

現在のステータス

高度 353.1 km
速度 7.70 km/s
衛星直下点 65.62°N, 51.87°W
打ち上げ日 Mar 20, 2026
運用期間 0.1 years
タイプ internet

技術仕様

分類 Payload
質量 575.00 kg
乾燥質量 530.00 kg
総質量 575.00 kg
長さ 0.30 m
直径 4.10 m
スパン 29.00 m
形状 Box + pan
製造者 SPXS
バスタイプ Starlink V2MO
フェーズステータス In Orbit
所有者/国 SPXS/US

Most Searched